THORAD AGENA D DEB, 4744

Orbit data source: Space-Track

THORAD AGENA D DEB, 4744 is space debris in SSO originally from a launch on Wed, 08 Apr 1970 UTC launched from the Air Force Western Test Range (AFWTR). Debris objects in space refer to the collection of defunct objects orbiting the Earth. Examples of debris include non-operational satellites, rocket bodies, and fragments generated from explosions, collisions, or faulty payload assembly.

Loading next visibility...
Identifier
4744, 1970-025CT
Orbit
SSO
Country
Flag of USUS
Related business
Manufacturer
Unknown
Mission
Spacecraft
Bus & Motor
Unknown
Mass
Unknown
Launch date (UTC)
1970-04-08 (56 years ago)
Launch vehicle
Unknown
Launch site
Air Force Western Test Range (AFWTR)
Object type
Payload
Rocket body
Debris
Shape & HBR
Unknown shape, 0.3 m
Radar Cross Section
Medium (>0.1 m² and <1 m²)

Expand to show TLE details & history
Last TLE update: 7 hours ago

TLE from 7 hours ago
0 THORAD AGENA D DEB
1  4744U 70025CT  26132.84098355 -.00000057  00000-0 -12964-4 0  9999
2  4744 100.1332 166.1437 0014608 328.8367  31.1902 13.56872807770473
Epoch: 2026-05-12T20:11Z
TLE epoch observation values (Epoch: 2026-05-12T20:11:00.978Z)
Latitude
-0.00006°
Longitude
-7.21994°
Altitude
1,040.582 km
Speed
7.336 km/s
True Right ascension
11h 04m 34s
True Declination
0° 00' 00"
Sunlit
Object was in daylight at epoch
Visualization orbit readout
Latitude
Unknown
Longitude
Unknown
Altitude
Unknown
Speed
Unknown
Apparent Right ascension
Unknown
Apparent Declination
Unknown
Sunlit
N/A
Visualization observer readout
Local Sidereal Time
11:44:10
Azimuth
Unknown
Elevation
Unknown
Doppler factor
Unknown
Orbital elements
Apogee altitude
1,055.237 km
Perigee altitude
1,033.551 km
Semi-major axis
7,422.531 km
Eccentricity
0.00146
Inclination
100.1332°
RAAN
166.1437°
Arg. of periapsis
328.8367°
True anomaly
31.27703°
Mean anomaly
31.1902°
Eccentric anomaly
31.2336°
Mean motion
3.39403 °/min
Orbital period
106.07 mins
BSTAR
-0.000012964

Documentation

Showing up to 5 results
|